CFG2RC EGKK-EDDF

Flight info

Callsign CFG2RC
Flight time 1h 2m
Altitude 39000
Route ODVIK Y311 DVR UL9 KONAN UL607 SPI T180 NIVNUT847 IMCOM IMCOM1A
Aircraft E190/M-SDE3GILORVW/S

Departure

Time 2026-05-06 18:12
Airport London Gatwick Airport (EGKK)

Arrival

Time 2026-05-06 19:15
Airport Frankfurt Main Airport (EDDF)
Time Latitude Longitude Altitude Speed Heading
2026-05-06 17:26 51.15848 -0.17522 210 ft 0 kts 347°
2026-05-06 17:38 51.15839 -0.17519 213 ft 4 kts 347°
2026-05-06 17:39 51.15817 -0.17511 208 ft 3 kts 347°
2026-05-06 17:39 51.15793 -0.17497 213 ft 4 kts 319°
2026-05-06 17:39 51.15778 -0.17464 213 ft 4 kts 285°
2026-05-06 17:39 51.15775 -0.17422 214 ft 4 kts 262°
2026-05-06 17:40 51.15780 -0.17383 212 ft 4 kts 257°
2026-05-06 17:40 51.15781 -0.17374 211 ft 0 kts 257°
2026-05-06 17:49 51.15780 -0.17378 212 ft 1 kts 257°
2026-05-06 17:49 51.15775 -0.17415 214 ft 6 kts 257°
2026-05-06 17:49 51.15762 -0.17505 215 ft 11 kts 257°
2026-05-06 17:49 51.15743 -0.17647 209 ft 15 kts 258°
2026-05-06 17:50 51.15717 -0.17839 211 ft 20 kts 257°
2026-05-06 17:50 51.15687 -0.18058 214 ft 21 kts 257°
2026-05-06 17:50 51.15658 -0.18273 207 ft 13 kts 258°
2026-05-06 17:50 51.15598 -0.18351 207 ft 13 kts 171°
2026-05-06 17:51 51.15498 -0.18318 210 ft 17 kts 168°
2026-05-06 17:51 51.15367 -0.18274 210 ft 22 kts 168°
2026-05-06 17:51 51.15209 -0.18240 204 ft 22 kts 211°
2026-05-06 17:51 51.15168 -0.18467 210 ft 23 kts 258°
2026-05-06 17:52 51.15133 -0.18724 203 ft 25 kts 257°
2026-05-06 17:52 51.15097 -0.18995 210 ft 25 kts 257°
2026-05-06 17:52 51.15059 -0.19271 204 ft 23 kts 258°
2026-05-06 17:52 51.15023 -0.19524 207 ft 23 kts 258°
2026-05-06 17:53 51.14989 -0.19778 204 ft 24 kts 259°
2026-05-06 17:53 51.14953 -0.20044 208 ft 25 kts 258°
2026-05-06 17:53 51.14916 -0.20312 203 ft 25 kts 258°
2026-05-06 17:53 51.14877 -0.20580 207 ft 25 kts 257°
2026-05-06 17:54 51.14843 -0.20827 204 ft 21 kts 257°
2026-05-06 17:54 51.14817 -0.21022 204 ft 15 kts 257°
2026-05-06 17:54 51.14798 -0.21136 214 ft 8 kts 252°
2026-05-06 17:54 51.14789 -0.21168 210 ft 0 kts 247°
2026-05-06 17:55 51.14789 -0.21171 210 ft 0 kts 247°
2026-05-06 17:56 51.14787 -0.21177 210 ft 1 kts 248°
2026-05-06 17:56 51.14782 -0.21204 206 ft 4 kts 255°
2026-05-06 17:56 51.14774 -0.21252 204 ft 0 kts 257°
2026-05-06 17:57 51.14772 -0.21269 204 ft 3 kts 257°
2026-05-06 17:57 51.14766 -0.21309 207 ft 5 kts 257°
2026-05-06 17:57 51.14763 -0.21333 204 ft 0 kts 257°
2026-05-06 18:05 51.14761 -0.21341 204 ft 2 kts 257°
2026-05-06 18:05 51.14755 -0.21376 208 ft 5 kts 250°
2026-05-06 18:06 51.14734 -0.21404 211 ft 2 kts 199°
2026-05-06 18:09 51.14727 -0.21406 204 ft 2 kts 191°
2026-05-06 18:09 51.14714 -0.21406 213 ft 3 kts 178°
2026-05-06 18:09 51.14683 -0.21392 204 ft 6 kts 155°
2026-05-06 18:09 51.14633 -0.21336 206 ft 8 kts 162°
2026-05-06 18:10 51.14618 -0.21330 207 ft 2 kts 168°
2026-05-06 18:10 51.14614 -0.21328 206 ft 0 kts 168°
2026-05-06 18:10 51.14612 -0.21328 206 ft 1 kts 167°
2026-05-06 18:11 51.14589 -0.21318 213 ft 7 kts 165°
2026-05-06 18:11 51.14535 -0.21262 204 ft 11 kts 130°
2026-05-06 18:11 51.14522 -0.21160 206 ft 5 kts 79°
2026-05-06 18:11 51.14528 -0.21113 209 ft 22 kts 77°
2026-05-06 18:12 51.14618 -0.20463 211 ft 97 kts 77°
2026-05-06 18:12 51.14811 -0.19091 210 ft 160 kts 77°
2026-05-06 18:12 51.15051 -0.17227 815 ft 183 kts 77°
2026-05-06 18:12 51.15304 -0.15051 1431 ft 210 kts 77°
2026-05-06 18:13 51.15582 -0.12621 1866 ft 236 kts 77°
2026-05-06 18:13 51.15910 -0.09990 2663 ft 249 kts 76°
2026-05-06 18:13 51.16312 -0.07270 3559 ft 253 kts 74°
2026-05-06 18:13 51.16737 -0.04500 4425 ft 260 kts 78°
2026-05-06 18:14 51.16927 -0.01601 5252 ft 266 kts 89°
2026-05-06 18:14 51.16874 0.01375 5915 ft 276 kts 93°
2026-05-06 18:14 51.16767 0.04441 5984 ft 276 kts 93°
2026-05-06 18:14 51.16678 0.07492 5990 ft 273 kts 92°
2026-05-06 18:15 51.16610 0.10504 6011 ft 271 kts 92°
2026-05-06 18:15 51.16551 0.13508 6005 ft 271 kts 91°
2026-05-06 18:15 51.16494 0.16494 6151 ft 265 kts 91°
2026-05-06 18:15 51.16493 0.19422 6779 ft 267 kts 89°
2026-05-06 18:16 51.16516 0.22413 7423 ft 273 kts 88°
2026-05-06 18:16 51.16551 0.25471 8085 ft 279 kts 88°
2026-05-06 18:16 51.16578 0.28600 8756 ft 286 kts 88°
2026-05-06 18:16 51.16584 0.31764 9467 ft 292 kts 89°
2026-05-06 18:17 51.16591 0.35026 10220 ft 296 kts 88°
2026-05-06 18:17 51.16601 0.38371 10938 ft 302 kts 88°
2026-05-06 18:17 51.16610 0.41693 11728 ft 305 kts 89°
2026-05-06 18:17 51.16610 0.45127 12608 ft 307 kts 89°
2026-05-06 18:18 51.16606 0.48503 13465 ft 311 kts 89°
2026-05-06 18:18 51.16605 0.52053 13984 ft 328 kts 89°
2026-05-06 18:18 51.16603 0.55755 14497 ft 340 kts 89°
2026-05-06 18:18 51.16599 0.59551 15277 ft 345 kts 89°
2026-05-06 18:19 51.16594 0.63392 16096 ft 348 kts 90°
2026-05-06 18:19 51.16587 0.67290 16734 ft 358 kts 90°
2026-05-06 18:19 51.16580 0.71342 17108 ft 375 kts 90°
2026-05-06 18:19 51.16571 0.75604 17327 ft 395 kts 90°
2026-05-06 18:20 51.16559 0.80097 17501 ft 413 kts 90°
2026-05-06 18:20 51.16546 0.84728 18102 ft 419 kts 90°
2026-05-06 18:20 51.16530 0.89381 18746 ft 422 kts 90°
2026-05-06 18:20 51.16512 0.94079 19350 ft 425 kts 90°
2026-05-06 18:21 51.16492 0.98811 19921 ft 428 kts 90°
2026-05-06 18:21 51.16470 1.03587 20470 ft 432 kts 90°
2026-05-06 18:21 51.16446 1.08383 20988 ft 435 kts 90°
2026-05-06 18:21 51.16420 1.13226 21503 ft 438 kts 90°
2026-05-06 18:22 51.16392 1.18028 21994 ft 441 kts 90°
2026-05-06 18:22 51.16361 1.22947 22490 ft 444 kts 90°
2026-05-06 18:22 51.16329 1.27878 22990 ft 447 kts 90°
2026-05-06 18:22 51.16294 1.32855 23487 ft 451 kts 90°
2026-05-06 18:23 51.16250 1.37858 23965 ft 453 kts 91°
2026-05-06 18:23 51.16051 1.42888 24441 ft 456 kts 95°
2026-05-06 18:23 51.15758 1.47934 24901 ft 458 kts 95°
2026-05-06 18:23 51.15478 1.53017 25353 ft 461 kts 95°
2026-05-06 18:24 51.15214 1.58128 25757 ft 464 kts 95°
2026-05-06 18:24 51.14957 1.63268 26168 ft 467 kts 95°
2026-05-06 18:24 51.14701 1.68430 26545 ft 469 kts 95°
2026-05-06 18:24 51.14442 1.73626 26904 ft 472 kts 95°
2026-05-06 18:25 51.14183 1.78778 27239 ft 474 kts 95°
2026-05-06 18:25 51.13914 1.84084 27574 ft 476 kts 95°
2026-05-06 18:25 51.13644 1.89351 27899 ft 478 kts 95°
2026-05-06 18:25 51.13371 1.94638 28203 ft 480 kts 95°
2026-05-06 18:26 51.13093 1.99877 28498 ft 482 kts 96°
2026-05-06 18:26 51.12559 2.05146 28771 ft 483 kts 104°
2026-05-06 18:26 51.11706 2.10326 29071 ft 485 kts 106°
2026-05-06 18:26 51.10824 2.15508 29444 ft 485 kts 105°
2026-05-06 18:27 51.09982 2.20728 29646 ft 488 kts 105°
2026-05-06 18:27 51.09172 2.25965 30019 ft 487 kts 104°
2026-05-06 18:27 51.08372 2.31206 30355 ft 486 kts 104°
2026-05-06 18:27 51.07583 2.36382 30916 ft 479 kts 104°
2026-05-06 18:28 51.06797 2.41526 31276 ft 477 kts 104°
2026-05-06 18:28 51.06010 2.46649 31526 ft 477 kts 104°
2026-05-06 18:28 51.05217 2.51783 31775 ft 478 kts 104°
2026-05-06 18:28 51.04425 2.56909 32054 ft 477 kts 104°
2026-05-06 18:29 51.03633 2.62018 32324 ft 476 kts 104°
2026-05-06 18:29 51.02838 2.67127 32580 ft 476 kts 104°
2026-05-06 18:29 51.02041 2.72232 32850 ft 476 kts 104°
2026-05-06 18:29 51.01245 2.77320 33143 ft 475 kts 104°
2026-05-06 18:30 51.00445 2.82411 33403 ft 474 kts 104°
2026-05-06 18:30 50.99644 2.87492 33657 ft 474 kts 104°
2026-05-06 18:30 50.98844 2.92556 33893 ft 474 kts 104°
2026-05-06 18:30 50.98041 2.97622 34112 ft 473 kts 104°
2026-05-06 18:31 50.97236 3.02685 34287 ft 474 kts 104°
2026-05-06 18:31 50.96428 3.07753 34501 ft 474 kts 104°
2026-05-06 18:31 50.95617 3.12819 34690 ft 474 kts 104°
2026-05-06 18:31 50.94812 3.17828 34897 ft 474 kts 104°
2026-05-06 18:32 50.93175 3.27978 34928 ft 475 kts 105°
2026-05-06 18:32 50.91531 3.38101 34918 ft 473 kts 105°
2026-05-06 18:33 50.89882 3.48206 34924 ft 473 kts 105°
2026-05-06 18:33 50.88225 3.58287 34921 ft 473 kts 105°
2026-05-06 18:34 50.86560 3.68362 34925 ft 473 kts 105°
2026-05-06 18:34 50.84886 3.78429 34935 ft 472 kts 105°
2026-05-06 18:35 50.83225 3.88419 34911 ft 472 kts 105°
2026-05-06 18:35 50.81547 3.98449 34912 ft 472 kts 105°
2026-05-06 18:36 50.79912 4.08136 34918 ft 472 kts 105°
2026-05-06 18:36 50.78210 4.18164 34924 ft 472 kts 106°
2026-05-06 18:37 50.76779 4.26489 34927 ft 472 kts 106°
2026-05-06 18:37 50.74768 4.38198 34931 ft 472 kts 106°
2026-05-06 18:38 50.73054 4.48216 34931 ft 472 kts 106°
2026-05-06 18:38 50.71331 4.58215 34929 ft 472 kts 106°
2026-05-06 18:39 50.69587 4.68206 34922 ft 472 kts 107°
2026-05-06 18:40 50.66964 4.83113 34912 ft 472 kts 107°
2026-05-06 18:40 50.65209 4.93065 34906 ft 472 kts 107°
2026-05-06 18:41 50.63425 5.03004 34903 ft 471 kts 107°
2026-05-06 18:41 50.61642 5.12957 34916 ft 471 kts 107°
2026-05-06 18:42 50.59873 5.22877 34915 ft 471 kts 107°
2026-05-06 18:42 50.58059 5.32791 34911 ft 471 kts 107°
2026-05-06 18:43 50.56278 5.42705 34906 ft 471 kts 107°
2026-05-06 18:43 50.54486 5.52594 34916 ft 471 kts 107°
2026-05-06 18:44 50.52659 5.62486 34729 ft 473 kts 107°
2026-05-06 18:44 50.51746 5.67435 34269 ft 469 kts 107°
2026-05-06 18:44 50.50848 5.72321 33766 ft 463 kts 107°
2026-05-06 18:44 50.49952 5.77173 33186 ft 461 kts 107°
2026-05-06 18:45 50.49057 5.81999 32610 ft 461 kts 107°
2026-05-06 18:45 50.48150 5.86832 32011 ft 462 kts 108°
2026-05-06 18:45 50.47238 5.91685 31408 ft 462 kts 108°
2026-05-06 18:45 50.46636 5.94886 31025 ft 462 kts 108°
2026-05-06 18:46 50.45429 6.01349 30261 ft 461 kts 107°
2026-05-06 18:46 50.44520 6.06169 29661 ft 460 kts 108°
2026-05-06 18:46 50.43602 6.10997 29003 ft 463 kts 108°
2026-05-06 18:46 50.42691 6.15779 28364 ft 464 kts 108°
2026-05-06 18:47 50.41769 6.20617 27707 ft 461 kts 108°
2026-05-06 18:47 50.40855 6.25413 27057 ft 458 kts 108°
2026-05-06 18:47 50.39946 6.30184 26428 ft 455 kts 108°
2026-05-06 18:47 50.39041 6.34922 25822 ft 452 kts 108°
2026-05-06 18:48 50.38142 6.39623 25224 ft 450 kts 108°
2026-05-06 18:48 50.37241 6.44314 24584 ft 448 kts 108°
2026-05-06 18:48 50.36344 6.48966 23970 ft 445 kts 108°
2026-05-06 18:48 50.35450 6.53592 23364 ft 443 kts 108°
2026-05-06 18:49 50.34556 6.58187 22651 ft 439 kts 108°
2026-05-06 18:49 50.33671 6.62739 21993 ft 435 kts 108°
2026-05-06 18:49 50.32792 6.67256 21448 ft 430 kts 108°
2026-05-06 18:49 50.31924 6.71722 20983 ft 429 kts 108°
2026-05-06 18:50 50.31057 6.76170 20542 ft 427 kts 108°
2026-05-06 18:50 50.30188 6.80622 20108 ft 428 kts 108°
2026-05-06 18:50 50.29318 6.85070 19674 ft 427 kts 108°
2026-05-06 18:50 50.28454 6.89491 19249 ft 424 kts 108°
2026-05-06 18:51 50.27591 6.93900 18832 ft 422 kts 108°
2026-05-06 18:51 50.26734 6.98274 18420 ft 420 kts 108°
2026-05-06 18:51 50.25878 7.02633 17997 ft 418 kts 108°
2026-05-06 18:51 50.25025 7.06970 17536 ft 416 kts 108°
2026-05-06 18:52 50.24176 7.11267 17081 ft 412 kts 108°
2026-05-06 18:52 50.23332 7.15539 16641 ft 410 kts 108°
2026-05-06 18:52 50.22491 7.19777 16209 ft 407 kts 108°
2026-05-06 18:52 50.21653 7.23985 15829 ft 404 kts 108°
2026-05-06 18:53 50.21097 7.26759 15615 ft 406 kts 108°
2026-05-06 18:53 50.20255 7.30957 15292 ft 404 kts 108°
2026-05-06 18:53 50.19418 7.35128 14972 ft 401 kts 108°
2026-05-06 18:53 50.18624 7.39304 14653 ft 400 kts 106°
2026-05-06 18:54 50.17884 7.43467 14342 ft 398 kts 107°
2026-05-06 18:54 50.16990 7.47543 14022 ft 395 kts 113°
2026-05-06 18:54 50.15902 7.51462 13745 ft 392 kts 115°
2026-05-06 18:54 50.14791 7.55335 13439 ft 391 kts 115°
2026-05-06 18:55 50.13694 7.59211 13127 ft 390 kts 115°
2026-05-06 18:55 50.12613 7.63078 12816 ft 388 kts 115°
2026-05-06 18:55 50.11540 7.66931 12505 ft 386 kts 115°
2026-05-06 18:55 50.10226 7.70555 12198 ft 384 kts 124°
2026-05-06 18:56 50.09100 7.74307 11879 ft 385 kts 106°
2026-05-06 18:56 50.08860 7.78438 11573 ft 385 kts 86°
2026-05-06 18:56 50.09191 7.82572 11308 ft 383 kts 82°
2026-05-06 18:56 50.09627 7.86666 11036 ft 382 kts 80°
2026-05-06 18:57 50.10088 7.90729 10814 ft 379 kts 80°
2026-05-06 18:57 50.10551 7.94785 10826 ft 381 kts 79°
2026-05-06 18:57 50.11050 7.98842 10830 ft 381 kts 79°
2026-05-06 18:57 50.11553 8.02886 10829 ft 381 kts 79°
2026-05-06 18:58 50.12060 8.06938 10816 ft 381 kts 79°
2026-05-06 18:58 50.12573 8.10989 10823 ft 381 kts 79°
2026-05-06 18:58 50.13091 8.14990 10828 ft 381 kts 78°
2026-05-06 18:58 50.13621 8.19030 10824 ft 381 kts 78°
2026-05-06 18:59 50.14155 8.23080 10825 ft 381 kts 78°
2026-05-06 18:59 50.14689 8.27117 10825 ft 381 kts 78°
2026-05-06 18:59 50.15223 8.31151 10830 ft 380 kts 78°
2026-05-06 18:59 50.15758 8.35205 10829 ft 380 kts 78°
2026-05-06 19:00 50.16290 8.39239 10835 ft 380 kts 78°
2026-05-06 19:00 50.16822 8.43287 10756 ft 382 kts 78°
2026-05-06 19:00 50.17346 8.47290 10385 ft 368 kts 79°
2026-05-06 19:00 50.17856 8.51166 10052 ft 362 kts 79°
2026-05-06 19:01 50.18444 8.54964 9739 ft 353 kts 76°
2026-05-06 19:01 50.19004 8.58609 9403 ft 342 kts 78°
2026-05-06 19:01 50.19436 8.62220 9079 ft 336 kts 81°
2026-05-06 19:01 50.19788 8.65806 8771 ft 332 kts 83°
2026-05-06 19:02 50.20099 8.69374 8453 ft 330 kts 84°
2026-05-06 19:02 50.20390 8.72918 8147 ft 324 kts 84°
2026-05-06 19:02 50.20668 8.76334 7742 ft 308 kts 84°
2026-05-06 19:02 50.20930 8.79537 7312 ft 289 kts 83°
2026-05-06 19:03 50.21173 8.82520 6912 ft 273 kts 84°
2026-05-06 19:03 50.21406 8.85385 6541 ft 261 kts 84°
2026-05-06 19:03 50.21705 8.88124 6176 ft 252 kts 75°
2026-05-06 19:03 50.22245 8.90705 5840 ft 250 kts 70°
2026-05-06 19:04 50.22870 8.93250 5525 ft 253 kts 69°
2026-05-06 19:04 50.23499 8.95817 5335 ft 252 kts 69°
2026-05-06 19:04 50.24109 8.98391 5143 ft 252 kts 70°
2026-05-06 19:04 50.24710 9.00949 4975 ft 250 kts 70°
2026-05-06 19:05 50.25295 9.03452 5031 ft 246 kts 70°
2026-05-06 19:05 50.25855 9.05999 5029 ft 249 kts 78°
2026-05-06 19:05 50.25799 9.08662 5023 ft 247 kts 111°
2026-05-06 19:05 50.24852 9.10825 5020 ft 242 kts 145°
2026-05-06 19:06 50.23342 9.11787 5036 ft 234 kts 179°
2026-05-06 19:06 50.21800 9.11261 5061 ft 227 kts 213°
2026-05-06 19:06 50.20592 9.09693 5076 ft 227 kts 224°
2026-05-06 19:06 50.19408 9.08020 4958 ft 226 kts 222°
2026-05-06 19:07 50.18213 9.06494 4980 ft 225 kts 220°
2026-05-06 19:07 50.16987 9.04914 4977 ft 226 kts 223°
2026-05-06 19:07 50.16127 9.02957 4987 ft 224 kts 251°
2026-05-06 19:07 50.15714 9.00607 4975 ft 226 kts 254°
2026-05-06 19:08 50.15195 8.98308 4983 ft 225 kts 248°
2026-05-06 19:08 50.14604 8.96061 4984 ft 219 kts 250°
2026-05-06 19:08 50.14120 8.93885 4961 ft 206 kts 251°
2026-05-06 19:08 50.13653 8.91833 4911 ft 196 kts 250°
2026-05-06 19:09 50.13184 8.89884 4869 ft 189 kts 250°
2026-05-06 19:09 50.12739 8.87966 4928 ft 186 kts 250°
2026-05-06 19:09 50.12291 8.86043 4930 ft 198 kts 250°
2026-05-06 19:09 50.11805 8.83978 4555 ft 206 kts 250°
2026-05-06 19:10 50.11308 8.81862 4296 ft 208 kts 250°
2026-05-06 19:10 50.10825 8.79799 3988 ft 202 kts 250°
2026-05-06 19:10 50.10344 8.77753 3697 ft 195 kts 250°
2026-05-06 19:10 50.09890 8.75825 3452 ft 183 kts 251°
2026-05-06 19:11 50.09466 8.74022 3202 ft 172 kts 251°
2026-05-06 19:11 50.09057 8.72286 2974 ft 175 kts 251°
2026-05-06 19:11 50.08639 8.70519 2741 ft 173 kts 252°
2026-05-06 19:11 50.08227 8.68770 2496 ft 171 kts 252°
2026-05-06 19:12 50.07824 8.67061 2274 ft 166 kts 253°
2026-05-06 19:12 50.07424 8.65369 2039 ft 166 kts 252°
2026-05-06 19:12 50.07040 8.63747 1827 ft 153 kts 252°
2026-05-06 19:12 50.06686 8.62251 1601 ft 141 kts 252°
2026-05-06 19:13 50.06363 8.60843 1324 ft 136 kts 254°
2026-05-06 19:13 50.06045 8.59478 1063 ft 133 kts 251°
2026-05-06 19:13 50.05714 8.58153 886 ft 133 kts 252°
2026-05-06 19:13 50.05389 8.56764 745 ft 139 kts 252°
2026-05-06 19:14 50.05061 8.55352 674 ft 139 kts 251°
2026-05-06 19:14 50.04722 8.53942 487 ft 139 kts 251°
2026-05-06 19:14 50.04392 8.52568 350 ft 128 kts 251°
2026-05-06 19:14 50.04124 8.51452 328 ft 81 kts 251°
2026-05-06 19:15 50.03948 8.50973 326 ft 44 kts 225°
2026-05-06 19:15 50.03845 8.50848 327 ft 3 kts 201°
2026-05-06 19:15 50.03839 8.50845 328 ft 3 kts 199°
2026-05-06 19:15 50.03816 8.50841 331 ft 4 kts 179°
2026-05-06 19:16 50.03785 8.50871 332 ft 7 kts 127°
2026-05-06 19:16 50.03797 8.50995 330 ft 19 kts 69°
2026-05-06 19:16 50.03854 8.51228 331 ft 25 kts 69°
2026-05-06 19:16 50.03916 8.51487 332 ft 27 kts 69°
2026-05-06 19:17 50.03984 8.51768 334 ft 29 kts 68°
2026-05-06 19:17 50.04053 8.52060 338 ft 29 kts 69°
2026-05-06 19:17 50.04122 8.52348 348 ft 28 kts 69°
2026-05-06 19:17 50.04189 8.52634 353 ft 28 kts 70°
2026-05-06 19:18 50.04257 8.52914 355 ft 28 kts 69°
2026-05-06 19:18 50.04322 8.53191 361 ft 26 kts 70°
2026-05-06 19:18 50.04379 8.53434 371 ft 22 kts 70°
2026-05-06 19:18 50.04404 8.53657 374 ft 21 kts 85°
2026-05-06 19:19 50.04418 8.53894 374 ft 23 kts 84°
2026-05-06 19:19 50.04436 8.54148 374 ft 24 kts 83°
2026-05-06 19:19 50.04452 8.54421 370 ft 27 kts 90°
2026-05-06 19:19 50.04378 8.54699 360 ft 28 kts 135°
2026-05-06 19:20 50.04216 8.54825 353 ft 20 kts 160°
2026-05-06 19:20 50.04106 8.54888 349 ft 11 kts 160°
2026-05-06 19:20 50.04082 8.54902 350 ft 1 kts 159°
2026-05-06 19:20 50.04077 8.54905 349 ft 0 kts 159°
2026-05-06 19:21 50.04076 8.54905 349 ft 0 kts 159°
2026-05-06 19:21 50.04075 8.54906 349 ft 0 kts 159°
2026-05-06 19:21 50.04074 8.54907 349 ft 0 kts 159°
2026-05-06 19:22 50.04054 8.54918 353 ft 5 kts 159°
2026-05-06 19:22 50.04004 8.54948 357 ft 10 kts 159°
2026-05-06 19:23 50.03913 8.55002 353 ft 18 kts 159°
2026-05-06 19:23 50.03851 8.55094 353 ft 13 kts 89°
2026-05-06 19:23 50.03879 8.55239 348 ft 15 kts 70°
2026-05-06 19:23 50.03918 8.55402 351 ft 17 kts 69°
2026-05-06 19:24 50.03961 8.55584 352 ft 19 kts 70°
2026-05-06 19:24 50.04011 8.55786 356 ft 21 kts 69°
2026-05-06 19:24 50.04061 8.56001 353 ft 22 kts 69°
2026-05-06 19:24 50.04112 8.56213 358 ft 20 kts 70°
2026-05-06 19:25 50.04157 8.56403 356 ft 15 kts 70°
2026-05-06 19:25 50.04194 8.56556 359 ft 15 kts 69°
2026-05-06 19:25 50.04218 8.56661 363 ft 1 kts 70°
2026-05-06 19:25 50.04219 8.56663 363 ft 0 kts 70°
2026-05-06 19:26 50.04220 8.56666 363 ft 1 kts 70°
2026-05-06 19:26 50.04229 8.56706 360 ft 7 kts 70°
2026-05-06 19:27 50.04254 8.56813 362 ft 14 kts 70°
2026-05-06 19:27 50.04297 8.56991 358 ft 20 kts 69°
2026-05-06 19:27 50.04344 8.57192 361 ft 20 kts 69°
2026-05-06 19:27 50.04396 8.57408 350 ft 22 kts 70°
2026-05-06 19:28 50.04440 8.57593 366 ft 15 kts 69°
2026-05-06 19:28 50.04478 8.57751 364 ft 17 kts 70°
2026-05-06 19:28 50.04520 8.57930 365 ft 17 kts 71°
2026-05-06 19:28 50.04593 8.58025 359 ft 14 kts 347°
2026-05-06 19:29 50.04636 8.58001 362 ft 3 kts 340°
2026-05-06 19:29 50.04654 8.57991 360 ft 5 kts 341°
2026-05-06 19:29 50.04707 8.57962 361 ft 11 kts 339°
2026-05-06 19:29 50.04790 8.57946 365 ft 13 kts 31°
2026-05-06 19:30 50.04831 8.58079 361 ft 15 kts 70°
2026-05-06 19:30 50.04866 8.58229 363 ft 16 kts 72°
2026-05-06 19:30 50.04906 8.58399 361 ft 18 kts 69°
2026-05-06 19:30 50.04951 8.58587 363 ft 20 kts 70°
2026-05-06 19:31 50.04983 8.58724 362 ft 2 kts 71°
2026-05-06 19:31 50.04993 8.58769 362 ft 7 kts 71°
2026-05-06 19:31 50.04956 8.58840 361 ft 4 kts 160°
2026-05-06 19:32 50.04938 8.58850 362 ft 2 kts 160°
2026-05-06 19:32 50.04926 8.58857 362 ft 2 kts 159°
2026-05-06 19:32 50.04917 8.58862 361 ft 1 kts 159°
2026-05-06 19:32 50.04915 8.58864 365 ft 0 kts 160°
2026-05-06 19:33 50.04912 8.58865 364 ft 0 kts 160°
2026-05-06 19:33 50.04911 8.58866 364 ft 0 kts 160°